Regional Weather Roundup
Issued by NWS Newport/Morehead, NC

Current Version | Previous Version | Graphics & Text | Print | Product List | Glossary On
Versions: 1 2 3 4 5 6 7 8 9 10 11 12 13 14 15 16 17 18 19 20 21 22 23 24 25 26 27 28 29 30 31 32 33 34 35 36 37 38 39 40 41 42 43 44 45 46 47 48 49 50
000 ASUS42 KMHX 301225 RWRMHX WEATHER ROUNDUP FOR EASTERN NORTH CAROLINA NATIONAL WEATHER SERVICE NEWPORT/MOREHEAD CITY NC 800 AM EDT SAT MAY 30 2015 NOTE: "FAIR" INDICATES FEW OR NO CLOUDS BELOW 12,000 FEET WITH NO SIGNIFICANT WEATHER AND/OR OBSTRUCTIONS TO VISIBILITY NCZ015>017-031-032-045>047-102-103-301300- NORTH COAST CITY SKY/WX TMP DP RH WIND PRES REMARKS EDENTON SUNNY 74 67 78 S3 30.24R ELIZABETH CITY SUNNY 75 68 78 S3 30.24R KITTY HAWK PTSUNNY 72 68 88 CALM 30.23R MANTEO MOSUNNY 74 67 76 CALM 30.24S $$ NCZ045>047-081-094-103-104-301300- CENTRAL COAST CITY SKY/WX TMP DP RH WIND PRES REMARKS FRISCO SUNNY 76 63 64 VRB3 30.24R SWANQUARTER N/A 73 N/A N/A E2 30.21S $$ NCZ095-097-098-100-101-301300- SOUTHERN COAST CITY SKY/WX TMP DP RH WIND PRES REMARKS BEAUFORT SUNNY 75 69 81 NE3 30.23R CEDAR ISLAND N/A 77 N/A N/A E5 30.27S JACKSONVILLE SUNNY 74 67 78 NE5 30.22R PINEY ISLAND SUNNY N/A N/A N/A E5 30.23R WILMINGTON SUNNY 74 68 81 NE3 30.21R $$ NCZ011>013-027>030-043-044-078>080-089-090>093-098-301300- COASTAL PLAIN CITY SKY/WX TMP DP RH WIND PRES REMARKS AHOSKIE MOSUNNY 69 67 93 CALM 30.25R CLINTON PTSUNNY 73 71 93 CALM 30.23R ELIZABETHTOWN PTSUNNY 71 71 100 CALM 30.23R GOLDSBORO SUNNY 73 68 85 CALM 30.21R GREENVILLE PTSUNNY 72 68 88 CALM 30.25R HAVELOCK SUNNY 74 67 78 CALM 30.24R KENANSVILLE MOSUNNY 68 67 96 CALM 30.25R FOG KINSTON SUNNY 72 66 83 MISG 30.25R NEW BERN SUNNY 75 69 81 CALM 30.24R RICHLANDS MOSUNNY 73 64 73 CALM 30.24R ROCKY MOUNT SUNNY 71 68 90 CALM 30.24R WASHINGTON MOSUNNY 73 68 82 CALM 30.25R WHITEVILLE MOSUNNY 71 68 90 CALM 30.21R $$ AMZ130-135-150-152-154-156-158-170-250-252-270-ANZ085-086-088-633-658-670-301300- MARINE OBSERVATIONS STATION/POSITION TIME TEMP WIND PRES WAVE SWELL AIR SEA DIR/SP/G HT/PER HT/PER (UTC) (F) (DEG/KT/KT) (MB) (FT/S) (FT/S) CHESAPEAKE LIGHT 1200 70 170/ 10/ 10 1024.8 64 E VA BEACH 1150 70 66 80/ 2/ 4 1023.8 3/ 9 3/ 9 DUCK 1200 69 57 140/ 3/ 3 1023.1 2 E DUCK 1111 64 N/A 3/ 9 OREGON INLET 1200 76 76 170/ 4/ 5 1024.0 13E OREGON INLT 1200 75 N/A 4/ 9 2/11 HATTERAS CG 1200 77 77 100/ 4/ 6 1023.5 DIAMOND BUOY 1150 76 79 110/ 6/ 10 1023.8 4/ 9 3/ 9 CAPE LOOKOUT 1200 76 70/ 6/ 6 1023.2 BEAUFORT LAB 1200 76 76 30/ 2/ 4 1022.7 27 SE WRIGHTSVLE 1200 75 170/ 4/ 6 N/A 5 SE WRIGHTSVLE 1108 76 77 160/ 4/ 8 1022.6 225 S CAPE HAT 1150 74 74 50/ 10/ 12 1021.5 6/ 9 5/ 9 41 SE CHARLESTON 1150 78 79 80/ 12/ 14 1020.8 4/ 9 3/ 9 $$

USA.gov is the U.S. government's official web portal to all federal, state and local government web resources and services.